Time,TemperatureF,DewpointF,PressureIn,WindDirection,WindDirectionDegrees,WindSpeedMPH,WindSpeedGustMPH,Humidity,HourlyPrecipIn,Conditions,Clouds,dailyrainin,SolarRadiationWatts/m^2,SoftwareType,DateUTC
2014-12-20 00:04:00,44.8,43.5,30.21,NNE,22,1.6,3.5,95,0.00,RA,,0.00,0.0,WeatherDisplay:10.37,2014-12-20 06:04:00,
2014-12-20 00:09:00,44.8,43.5,30.21,North,11,3.3,5.8,95,0.00,RA,,0.00,0.0,WeatherDisplay:10.37,2014-12-20 06:09:00,
2014-12-20 00:14:00,44.7,43.4,30.21,North,1,0.0,0.0,95,0.00,,,0.00,0.0,WeatherDisplay:10.37,2014-12-20 06:14:00,
2014-12-20 00:19:00,44.7,43.4,30.21,NNE,27,3.6,4.6,95,0.00,,,0.00,0.0,WeatherDisplay:10.37,2014-12-20 06:19:00,
2014-12-20 00:24:00,44.7,43.1,30.21,North,6,2.9,5.8,94,0.00,,,0.00,0.0,WeatherDisplay:10.37,2014-12-20 06:24:00,
2014-12-20 00:29:00,44.6,43.0,30.21,North,6,1.2,3.5,94,0.00,,,0.00,0.0,WeatherDisplay:10.37,2014-12-20 06:29:00,
2014-12-20 00:34:00,44.6,43.0,30.21,NNW,339,2.5,5.8,94,0.00,,,0.00,0.0,WeatherDisplay:10.37,2014-12-20 06:34:00,
2014-12-20 00:39:00,44.6,43.3,30.21,NNE,18,2.0,4.6,95,0.00,,,0.00,0.0,WeatherDisplay:10.37,2014-12-20 06:39:00,
2014-12-20 00:44:00,44.6,43.3,30.21,NNW,346,2.8,4.6,95,0.00,,,0.00,0.0,WeatherDisplay:10.37,2014-12-20 06:44:00,
2014-12-20 00:49:00,44.6,43.3,30.21,North,8,2.7,4.6,95,0.00,,,0.00,0.0,WeatherDisplay:10.37,2014-12-20 06:49:00,
2014-12-20 00:54:00,44.5,43.2,30.21,NNW,337,2.0,4.6,95,0.00,,,0.00,0.0,WeatherDisplay:10.37,2014-12-20 06:54:00,
2014-12-20 00:59:00,44.5,43.2,30.21,NNW,343,2.8,4.6,95,0.00,,,0.00,0.0,WeatherDisplay:10.37,2014-12-20 06:59:00,
2014-12-20 01:04:00,44.5,43.2,30.20,North,352,0.1,2.3,95,0.00,,,0.00,0.0,WeatherDisplay:10.37,2014-12-20 07:04:00,
2014-12-20 01:09:00,44.5,43.2,30.21,NNE,12,1.2,4.6,95,0.00,,,0.00,0.0,WeatherDisplay:10.37,2014-12-20 07:09:00,
2014-12-20 01:14:00,44.4,43.1,30.20,North,351,3.0,6.3,95,0.00,,,0.00,0.0,WeatherDisplay:10.37,2014-12-20 07:14:00,
2014-12-20 01:19:00,44.4,43.1,30.20,North,352,2.8,5.8,95,0.00,,,0.00,0.0,WeatherDisplay:10.37,2014-12-20 07:19:00,
2014-12-20 01:24:00,44.3,43.0,30.20,North,356,0.7,2.3,95,0.00,,,0.00,0.0,WeatherDisplay:10.37,2014-12-20 07:24:00,
2014-12-20 01:29:00,44.3,43.3,30.20,NNW,327,4.2,5.8,96,0.00,,,0.00,0.0,WeatherDisplay:10.37,2014-12-20 07:29:00,
2014-12-20 01:34:00,44.3,43.0,30.20,NNW,343,5.5,6.9,95,0.00,,,0.00,0.0,WeatherDisplay:10.37,2014-12-20 07:34:00,
2014-12-20 01:39:00,44.3,43.3,30.20,NNW,339,4.3,4.6,96,0.00,,,0.00,0.0,WeatherDisplay:10.37,2014-12-20 07:39:00,
2014-12-20 01:44:00,44.3,43.3,30.20,NE,39,2.2,4.6,96,0.00,,,0.00,0.0,WeatherDisplay:10.37,2014-12-20 07:44:00,
2014-12-20 01:49:00,44.3,43.3,30.20,NNE,31,0.3,4.6,96,0.00,,,0.00,0.0,WeatherDisplay:10.37,2014-12-20 07:49:00,
2014-12-20 01:54:00,44.3,43.3,30.20,NNE,30,2.1,4.5,96,0.00,,,0.00,0.0,WeatherDisplay:10.37,2014-12-20 07:54:00,
2014-12-20 01:59:00,44.2,43.2,30.20,NNE,17,0.6,0.0,96,0.00,,,0.00,0.0,WeatherDisplay:10.37,2014-12-20 07:59:00,
2014-12-20 02:04:00,44.2,43.2,30.20,NE,38,4.1,5.8,96,0.00,,,0.00,0.0,WeatherDisplay:10.37,2014-12-20 08:04:00,
2014-12-20 02:09:00,44.2,43.2,30.20,NNW,341,2.0,4.6,96,0.00,,,0.00,0.0,WeatherDisplay:10.37,2014-12-20 08:09:00,
2014-12-20 02:14:00,44.1,43.1,30.20,North,359,4.1,5.8,96,0.00,,,0.00,0.0,WeatherDisplay:10.37,2014-12-20 08:14:00,
2014-12-20 02:19:00,44.1,43.1,30.21,NW,314,1.2,4.6,96,0.00,,,0.00,0.0,WeatherDisplay:10.37,2014-12-20 08:19:00,
2014-12-20 02:24:00,44.1,43.1,30.21,North,7,5.5,6.9,96,0.00,,,0.00,0.0,WeatherDisplay:10.37,2014-12-20 08:24:00,
2014-12-20 02:29:00,44.1,43.1,30.21,NW,313,2.6,5.8,96,0.00,,,0.00,0.0,WeatherDisplay:10.37,2014-12-20 08:29:00,
2014-12-20 02:34:00,44.0,43.0,30.21,North,351,2.2,4.6,96,0.00,,,0.00,0.0,WeatherDisplay:10.37,2014-12-20 08:34:00,
2014-12-20 02:39:00,44.0,43.0,30.21,North,357,3.5,4.6,96,0.00,,,0.00,0.0,WeatherDisplay:10.37,2014-12-20 08:39:00,
2014-12-20 02:44:00,43.9,42.9,30.21,North,11,3.6,3.6,96,0.00,,,0.00,0.0,WeatherDisplay:10.37,2014-12-20 08:44:00,
2014-12-20 02:49:00,43.9,42.9,30.22,NNW,342,6.5,9.9,96,0.00,,,0.00,0.0,WeatherDisplay:10.37,2014-12-20 08:49:00,
2014-12-20 02:54:00,43.9,42.9,30.21,North,4,2.7,5.4,96,0.00,,,0.00,0.0,WeatherDisplay:10.37,2014-12-20 08:54:00,
2014-12-20 02:59:00,43.8,43.0,30.22,WNW,291,3.3,4.6,97,0.00,,,0.00,0.0,WeatherDisplay:10.37,2014-12-20 08:59:00,
2014-12-20 03:04:00,43.7,42.9,30.22,NW,312,4.0,4.6,97,0.00,,,0.00,0.0,WeatherDisplay:10.37,2014-12-20 09:04:00,
2014-12-20 03:09:00,43.7,42.9,30.22,NNE,14,7.0,7.0,97,0.00,,,0.00,0.0,WeatherDisplay:10.37,2014-12-20 09:09:00,
2014-12-20 03:14:00,43.6,42.8,30.22,NNW,345,3.8,5.8,97,0.00,,,0.00,0.0,WeatherDisplay:10.37,2014-12-20 09:14:00,
2014-12-20 03:19:00,43.6,42.8,30.22,NW,314,3.7,5.8,97,0.00,,,0.00,0.0,WeatherDisplay:10.37,2014-12-20 09:19:00,
2014-12-20 03:24:00,43.5,42.7,30.22,North,11,6.9,9.2,97,0.00,,,0.00,0.0,WeatherDisplay:10.37,2014-12-20 09:24:00,
2014-12-20 03:29:00,43.5,42.7,30.22,North,11,6.4,6.4,97,0.00,,,0.00,0.0,WeatherDisplay:10.37,2014-12-20 09:29:00,
2014-12-20 03:34:00,43.4,42.6,30.22,North,350,6.8,6.9,97,0.00,,,0.00,0.0,WeatherDisplay:10.37,2014-12-20 09:34:00,
2014-12-20 03:39:00,43.4,42.6,30.21,NNE,15,2.5,3.5,97,0.00,,,0.00,0.0,WeatherDisplay:10.37,2014-12-20 09:39:00,
2014-12-20 03:44:00,43.4,42.6,30.21,NNW,337,3.1,6.9,97,0.00,,,0.00,0.0,WeatherDisplay:10.37,2014-12-20 09:44:00,
2014-12-20 03:49:00,43.3,42.5,30.21,North,9,5.1,8.1,97,0.00,,,0.00,0.0,WeatherDisplay:10.37,2014-12-20 09:49:00,
2014-12-20 03:54:00,43.2,42.4,30.22,NNE,13,3.9,7.2,97,0.00,,,0.00,0.0,WeatherDisplay:10.37,2014-12-20 09:54:00,
2014-12-20 03:59:00,43.2,42.4,30.22,North,4,5.0,5.8,97,0.00,,,0.00,0.0,WeatherDisplay:10.37,2014-12-20 09:59:00,
2014-12-20 04:04:00,43.2,42.4,30.22,NNW,345,1.5,4.6,97,0.00,,,0.00,0.0,WeatherDisplay:10.37,2014-12-20 10:04:00,
2014-12-20 04:09:00,43.1,42.3,30.22,North,349,4.8,6.9,97,0.00,,,0.00,0.0,WeatherDisplay:10.37,2014-12-20 10:09:00,
2014-12-20 04:14:00,43.1,42.3,30.21,NE,40,4.8,5.8,97,0.00,,,0.00,0.0,WeatherDisplay:10.37,2014-12-20 10:14:00,
2014-12-20 04:19:00,43.1,42.3,30.21,North,3,6.4,9.2,97,0.00,,,0.00,0.0,WeatherDisplay:10.37,2014-12-20 10:19:00,
2014-12-20 04:24:00,43.0,42.2,30.21,NNE,17,4.8,6.9,97,0.00,,,0.00,0.0,WeatherDisplay:10.37,2014-12-20 10:24:00,
2014-12-20 04:29:00,43.0,42.2,30.21,NNE,12,3.5,5.8,97,0.00,,,0.00,0.0,WeatherDisplay:10.37,2014-12-20 10:29:00,
2014-12-20 04:34:00,43.0,42.2,30.21,NNE,24,3.2,5.8,97,0.00,,,0.00,0.0,WeatherDisplay:10.37,2014-12-20 10:34:00,
2014-12-20 04:39:00,43.0,42.2,30.22,NNW,338,1.6,4.5,97,0.00,,,0.00,0.0,WeatherDisplay:10.37,2014-12-20 10:39:00,
2014-12-20 04:44:00,43.1,42.3,30.22,NNW,344,0.9,2.3,97,0.00,,,0.00,0.0,WeatherDisplay:10.37,2014-12-20 10:44:00,
2014-12-20 04:49:00,43.0,42.2,30.22,NNE,14,7.0,7.0,97,0.00,,,0.00,0.0,WeatherDisplay:10.37,2014-12-20 10:49:00,
2014-12-20 04:54:00,43.0,42.2,30.22,North,360,4.8,5.8,97,0.00,,,0.00,0.0,WeatherDisplay:10.37,2014-12-20 10:54:00,
2014-12-20 04:59:00,43.0,42.2,30.22,North,352,3.8,5.8,97,0.00,,,0.00,0.0,WeatherDisplay:10.37,2014-12-20 10:59:00,
2014-12-20 05:04:00,43.1,42.3,30.22,NNW,334,3.5,4.6,97,0.00,,,0.00,0.0,WeatherDisplay:10.37,2014-12-20 11:04:00,
2014-12-20 05:09:00,43.1,42.3,30.22,NNW,345,4.0,5.8,97,0.00,,,0.00,0.0,WeatherDisplay:10.37,2014-12-20 11:09:00,
2014-12-20 05:14:00,43.1,42.1,30.22,North,355,5.8,5.8,96,0.00,,,0.00,0.0,WeatherDisplay:10.37,2014-12-20 11:14:00,
2014-12-20 05:19:00,43.1,42.1,30.22,North,4,4.6,5.4,96,0.00,,,0.00,0.0,WeatherDisplay:10.37,2014-12-20 11:19:00,
2014-12-20 05:24:00,43.2,42.2,30.22,North,357,2.9,5.8,96,0.00,,,0.00,0.0,WeatherDisplay:10.37,2014-12-20 11:24:00,
2014-12-20 05:29:00,43.2,42.2,30.22,NNE,15,2.2,4.6,96,0.00,,,0.00,0.0,WeatherDisplay:10.37,2014-12-20 11:29:00,
2014-12-20 05:34:00,43.2,42.2,30.22,North,8,3.0,5.8,96,0.00,,,0.00,0.0,WeatherDisplay:10.37,2014-12-20 11:34:00,
2014-12-20 05:39:00,43.2,42.2,30.22,North,360,2.4,4.6,96,0.00,,,0.00,0.0,WeatherDisplay:10.37,2014-12-20 11:39:00,
2014-12-20 05:44:00,43.2,42.2,30.22,NNE,18,5.2,6.9,96,0.00,,,0.00,0.0,WeatherDisplay:10.37,2014-12-20 11:44:00,
2014-12-20 05:49:00,43.2,42.2,30.22,North,7,2.3,3.5,96,0.00,,,0.00,0.0,WeatherDisplay:10.37,2014-12-20 11:49:00,
2014-12-20 05:54:00,43.1,42.1,30.23,North,360,5.7,5.8,96,0.00,,,0.00,0.0,WeatherDisplay:10.37,2014-12-20 11:54:00,
2014-12-20 05:59:00,43.1,42.1,30.23,NNW,330,3.2,5.8,96,0.00,,,0.00,0.0,WeatherDisplay:10.37,2014-12-20 11:59:00,
2014-12-20 06:04:00,43.1,42.1,30.23,North,3,0.8,2.3,96,0.00,,,0.00,0.0,WeatherDisplay:10.37,2014-12-20 12:04:00,
2014-12-20 06:09:00,43.1,42.1,30.23,North,11,4.1,5.8,96,0.00,,,0.00,0.0,WeatherDisplay:10.37,2014-12-20 12:09:00,
2014-12-20 06:14:00,43.2,42.2,30.23,North,349,5.2,5.8,96,0.00,,,0.00,0.0,WeatherDisplay:10.37,2014-12-20 12:14:00,